Terminal Aerodrome Forecast
Issued by NWS State College, PA

Home | Current Version | Previous Version | Text Only | Print | Product List | Glossary On
Versions: 1 2 3 4 5 6 7 8 9 10 11 12 13 14 15 16 17 18 19 20 21 22 23 24 25 26 27 28 29
000
FTUS41 KCTP 051744
TAFIPT
TAF
KIPT 051744Z 0518/0618 03009KT P6SM OVC035
     FM052100 03006KT P6SM BKN040
     FM060400 31004KT P6SM BKN035
     FM060600 02007KT 6SM -RA BR OVC020
     FM061300 30010KT 5SM -SHRA BR OVC015=

USA.gov is the U.S. government's official web portal to all federal, state and local government web resources and services.